HI1045 SVMI-TNCC

Flight info

Callsign HI1045
Flight time 0h 45m
Altitude 24000
Route MARES1 MARES A315 ATONO UA315 AVELO AVELO1B
Aircraft C25B/M-SDE2E3FGHRWXY/LB1

Departure

Time 2026-04-29 17:24
Airport Maiquetía Simón Bolívar International Airport (SVMI)

Arrival

Time 2026-04-29 18:10
Airport Hato International Airport (TNCC)
Time Latitude Longitude Altitude Speed Heading
2026-04-29 16:06 10.60066 -67.00057 214 ft 0 kts 174°
2026-04-29 17:14 10.60066 -67.00044 214 ft 9 kts 29°
2026-04-29 17:14 10.60117 -67.00081 212 ft 10 kts 262°
2026-04-29 17:14 10.60110 -67.00159 212 ft 13 kts 268°
2026-04-29 17:14 10.60107 -67.00260 218 ft 16 kts 252°
2026-04-29 17:15 10.60015 -67.00311 215 ft 16 kts 222°
2026-04-29 17:15 10.59997 -67.00425 217 ft 18 kts 269°
2026-04-29 17:15 10.59993 -67.00561 219 ft 20 kts 268°
2026-04-29 17:15 10.59987 -67.00710 222 ft 22 kts 268°
2026-04-29 17:16 10.59983 -67.00870 226 ft 23 kts 268°
2026-04-29 17:16 10.59978 -67.01036 230 ft 24 kts 268°
2026-04-29 17:16 10.59975 -67.01210 234 ft 25 kts 285°
2026-04-29 17:16 10.60122 -67.01254 237 ft 24 kts 358°
2026-04-29 17:17 10.60158 -67.01255 236 ft 14 kts 354°
2026-04-29 17:17 10.60313 -67.01261 236 ft 0 kts
2026-04-29 17:23 10.60381 -67.01265 236 ft 1 kts 53°
2026-04-29 17:23 10.60377 -67.01233 236 ft 0 kts 90°
2026-04-29 17:23 10.60377 -67.01208 235 ft 18 kts 89°
2026-04-29 17:24 10.60388 -67.00841 225 ft 103 kts 89°
2026-04-29 17:24 10.60423 -66.99804 601 ft 178 kts 88°
2026-04-29 17:24 10.60507 -66.98323 1307 ft 230 kts 87°
2026-04-29 17:24 10.60588 -66.96748 2985 ft 218 kts 87°
2026-04-29 17:25 10.60670 -66.95221 4480 ft 224 kts 89°
2026-04-29 17:25 10.60818 -66.93607 6013 ft 235 kts 79°
2026-04-29 17:25 10.61777 -66.92234 7530 ft 251 kts 37°
2026-04-29 17:25 10.63489 -66.91774 9108 ft 267 kts
2026-04-29 17:26 10.65386 -66.92340 9998 ft 309 kts 330°
2026-04-29 17:26 10.66914 -66.93956 10838 ft 335 kts 298°
2026-04-29 17:26 10.67367 -66.96195 12552 ft 312 kts 262°
2026-04-29 17:26 10.66655 -66.98148 14585 ft 282 kts 234°
2026-04-29 17:27 10.65488 -66.99749 15985 ft 290 kts 226°
2026-04-29 17:27 10.64027 -67.01389 16057 ft 340 kts 232°
2026-04-29 17:27 10.63183 -67.03780 16030 ft 388 kts 261°
2026-04-29 17:27 10.63492 -67.06610 16309 ft 415 kts 287°
2026-04-29 17:28 10.65023 -67.09021 17725 ft 400 kts 315°
2026-04-29 17:28 10.67194 -67.10650 19457 ft 376 kts 327°
2026-04-29 17:28 10.69410 -67.12001 20462 ft 385 kts 329°
2026-04-29 17:28 10.71778 -67.13495 20458 ft 416 kts 326°
2026-04-29 17:29 10.74178 -67.15319 20399 ft 441 kts 319°
2026-04-29 17:29 10.76334 -67.17555 20905 ft 443 kts 309°
2026-04-29 17:29 10.78199 -67.20067 21450 ft 445 kts 304°
2026-04-29 17:29 10.79386 -67.21779 21768 ft 447 kts 304°
2026-04-29 17:30 10.81770 -67.25229 22395 ft 451 kts 305°
2026-04-29 17:30 10.83699 -67.27770 22827 ft 455 kts 307°
2026-04-29 17:30 10.85664 -67.30312 23262 ft 457 kts 307°
2026-04-29 17:30 10.87580 -67.32915 23626 ft 460 kts 305°
2026-04-29 17:31 10.89475 -67.35516 23917 ft 463 kts 306°
2026-04-29 17:31 10.91448 -67.38133 23932 ft 463 kts 307°
2026-04-29 17:31 10.93408 -67.40715 23930 ft 459 kts 306°
2026-04-29 17:31 10.95313 -67.43323 23931 ft 456 kts 306°
2026-04-29 17:32 10.97186 -67.45869 23929 ft 454 kts 306°
2026-04-29 17:32 10.99104 -67.48435 23931 ft 453 kts 307°
2026-04-29 17:32 11.01116 -67.50897 23935 ft 452 kts 309°
2026-04-29 17:32 11.03090 -67.53346 23938 ft 441 kts 308°
2026-04-29 17:33 11.05022 -67.55736 23931 ft 431 kts 308°
2026-04-29 17:33 11.06902 -67.58036 23932 ft 423 kts 308°
2026-04-29 17:33 11.08774 -67.60326 23932 ft 417 kts 308°
2026-04-29 17:33 11.10614 -67.62597 23935 ft 413 kts 308°
2026-04-29 17:34 11.12437 -67.64841 23932 ft 409 kts 308°
2026-04-29 17:34 11.14249 -67.67068 23931 ft 407 kts 308°
2026-04-29 17:34 11.16027 -67.69257 23930 ft 405 kts 308°
2026-04-29 17:34 11.17825 -67.71467 23935 ft 403 kts 308°
2026-04-29 17:35 11.20210 -67.74413 23934 ft 401 kts 308°
2026-04-29 17:35 11.23131 -67.78105 23873 ft 401 kts 308°
2026-04-29 17:35 11.24925 -67.80221 23933 ft 398 kts 309°
2026-04-29 17:36 11.26717 -67.82374 23935 ft 397 kts 308°
2026-04-29 17:36 11.28464 -67.84568 23934 ft 397 kts 307°
2026-04-29 17:36 11.30192 -67.86722 23934 ft 396 kts 308°
2026-04-29 17:36 11.31956 -67.88885 23935 ft 396 kts 308°
2026-04-29 17:37 11.33720 -67.91046 23933 ft 396 kts 308°
2026-04-29 17:37 11.35477 -67.93216 23935 ft 396 kts 308°
2026-04-29 17:37 11.37231 -67.95391 23934 ft 396 kts 308°
2026-04-29 17:37 11.38986 -67.97551 23935 ft 396 kts 308°
2026-04-29 17:38 11.40725 -67.99695 23931 ft 396 kts 308°
2026-04-29 17:38 11.42383 -68.01925 23932 ft 393 kts 300°
2026-04-29 17:38 11.43778 -68.04319 23935 ft 392 kts 300°
2026-04-29 17:38 11.45266 -68.06657 23937 ft 393 kts 301°
2026-04-29 17:39 11.46746 -68.09005 23937 ft 393 kts 300°
2026-04-29 17:39 11.48171 -68.11340 23938 ft 393 kts 300°
2026-04-29 17:39 11.49619 -68.13710 23938 ft 393 kts 300°
2026-04-29 17:39 11.51081 -68.16076 23941 ft 393 kts 300°
2026-04-29 17:40 11.52526 -68.18413 23944 ft 393 kts 300°
2026-04-29 17:40 11.53986 -68.20782 23944 ft 393 kts 300°
2026-04-29 17:40 11.55441 -68.23150 23943 ft 393 kts 300°
2026-04-29 17:40 11.56896 -68.25516 23944 ft 393 kts 300°
2026-04-29 17:41 11.58353 -68.27877 23941 ft 393 kts 300°
2026-04-29 17:41 11.59810 -68.30246 23942 ft 393 kts 300°
2026-04-29 17:41 11.61246 -68.32581 23941 ft 393 kts 300°
2026-04-29 17:41 11.62706 -68.34953 23946 ft 393 kts 300°
2026-04-29 17:42 11.64166 -68.37326 23948 ft 394 kts 300°
2026-04-29 17:42 11.65620 -68.39695 23944 ft 394 kts 300°
2026-04-29 17:42 11.67073 -68.42061 23948 ft 394 kts 300°
2026-04-29 17:42 11.68516 -68.44401 23945 ft 394 kts 300°
2026-04-29 17:43 11.69978 -68.46780 23942 ft 394 kts 300°
2026-04-29 17:43 11.71432 -68.49150 23945 ft 394 kts 300°
2026-04-29 17:43 11.72884 -68.51519 23945 ft 394 kts 300°
2026-04-29 17:43 11.74347 -68.53896 23944 ft 394 kts 300°
2026-04-29 17:44 11.75779 -68.56238 23941 ft 394 kts 300°
2026-04-29 17:44 11.77213 -68.58575 23366 ft 387 kts 300°
2026-04-29 17:44 11.78652 -68.60909 22384 ft 386 kts 300°
2026-04-29 17:44 11.80066 -68.63220 21553 ft 380 kts 300°
2026-04-29 17:45 11.81446 -68.65474 20742 ft 376 kts 300°
2026-04-29 17:45 11.82831 -68.67732 19965 ft 372 kts 300°
2026-04-29 17:45 11.84202 -68.69966 19229 ft 368 kts 301°
2026-04-29 17:45 11.85559 -68.72175 18522 ft 365 kts 301°
2026-04-29 17:46 11.86896 -68.74365 17775 ft 361 kts 301°
2026-04-29 17:46 11.88211 -68.76511 17005 ft 358 kts 301°
2026-04-29 17:46 11.89533 -68.78664 16246 ft 355 kts 301°
2026-04-29 17:46 11.90837 -68.80802 15545 ft 352 kts 301°
2026-04-29 17:47 11.92121 -68.82897 14885 ft 349 kts 302°
2026-04-29 17:47 11.93404 -68.84998 14240 ft 346 kts 302°
2026-04-29 17:47 11.94683 -68.87080 13612 ft 344 kts 302°
2026-04-29 17:47 11.95946 -68.89148 12939 ft 340 kts 302°
2026-04-29 17:48 11.97181 -68.91168 12285 ft 338 kts 302°
2026-04-29 17:48 11.98429 -68.93201 11681 ft 335 kts 302°
2026-04-29 17:48 11.99242 -68.94538 11273 ft 334 kts 302°
2026-04-29 17:48 12.00471 -68.96550 10695 ft 331 kts 303°
2026-04-29 17:49 12.02081 -68.99185 9953 ft 328 kts 303°
2026-04-29 17:49 12.02879 -69.00497 9567 ft 326 kts 303°
2026-04-29 17:49 12.04083 -69.02457 8996 ft 324 kts 303°
2026-04-29 17:49 12.05273 -69.04411 8438 ft 321 kts 302°
2026-04-29 17:50 12.06454 -69.06339 7899 ft 319 kts 302°
2026-04-29 17:50 12.07610 -69.08238 7386 ft 316 kts 302°
2026-04-29 17:50 12.08774 -69.10138 6890 ft 314 kts 302°
2026-04-29 17:50 12.09923 -69.12036 6398 ft 313 kts 302°
2026-04-29 17:51 12.11088 -69.13915 5881 ft 309 kts 305°
2026-04-29 17:51 12.12536 -69.15476 5373 ft 306 kts 323°
2026-04-29 17:51 12.14282 -69.16677 4908 ft 300 kts 336°
2026-04-29 17:51 12.16230 -69.17373 4472 ft 293 kts 348°
2026-04-29 17:52 12.18234 -69.17627 4028 ft 287 kts
2026-04-29 17:52 12.19554 -69.17700 3719 ft 288 kts 359°
2026-04-29 17:52 12.22184 -69.17961 3192 ft 285 kts 359°
2026-04-29 17:52 12.24164 -69.18108 2780 ft 283 kts 359°
2026-04-29 17:53 12.26111 -69.18260 2508 ft 275 kts 359°
2026-04-29 17:53 12.27965 -69.18461 2499 ft 263 kts 352°
2026-04-29 17:53 12.29616 -69.19216 2497 ft 258 kts 333°
2026-04-29 17:53 12.30980 -69.20368 2482 ft 253 kts 312°
2026-04-29 17:54 12.31926 -69.21867 2491 ft 249 kts 297°
2026-04-29 17:54 12.32384 -69.23546 2490 ft 247 kts 277°
2026-04-29 17:54 12.32156 -69.25257 2481 ft 242 kts 246°
2026-04-29 17:54 12.31270 -69.26671 2487 ft 232 kts 219°
2026-04-29 17:55 12.29932 -69.27537 2485 ft 224 kts 196°
2026-04-29 17:55 12.28449 -69.27763 2478 ft 216 kts 174°
2026-04-29 17:55 12.27013 -69.27402 2481 ft 210 kts 150°
2026-04-29 17:55 12.25849 -69.26534 2484 ft 205 kts 130°
2026-04-29 17:56 12.25107 -69.25309 2483 ft 202 kts 111°
2026-04-29 17:56 12.24780 -69.23922 2492 ft 201 kts 101°
2026-04-29 17:56 12.24479 -69.22534 2490 ft 203 kts 103°
2026-04-29 17:56 12.24142 -69.20950 2506 ft 266 kts 102°
2026-04-29 17:57 12.23717 -69.18907 2508 ft 294 kts 101°
2026-04-29 17:57 12.23320 -69.16987 2511 ft 258 kts 102°
2026-04-29 17:57 12.22964 -69.15289 2509 ft 231 kts 101°
2026-04-29 17:57 12.22633 -69.13768 2498 ft 212 kts 102°
2026-04-29 17:58 12.22320 -69.12369 2499 ft 186 kts 101°
2026-04-29 17:58 12.22094 -69.11180 2482 ft 156 kts 102°
2026-04-29 17:58 12.21859 -69.10172 2484 ft 136 kts 101°
2026-04-29 17:58 12.21685 -69.09214 2412 ft 149 kts 99°
2026-04-29 17:59 12.21423 -69.08067 2249 ft 181 kts 101°
2026-04-29 17:59 12.21159 -69.06760 1983 ft 199 kts 100°
2026-04-29 17:59 12.20857 -69.05382 1717 ft 185 kts 102°
2026-04-29 17:59 12.20611 -69.04165 1489 ft 167 kts 99°
2026-04-29 18:00 12.20381 -69.03068 1306 ft 132 kts 102°
2026-04-29 18:00 12.20232 -69.02404 994 ft 104 kts 97°
2026-04-29 18:00 12.20093 -69.01602 980 ft 112 kts 103°
2026-04-29 18:00 12.19905 -69.00840 872 ft 110 kts 101°
2026-04-29 18:01 12.19767 -69.00060 729 ft 116 kts 108°
2026-04-29 18:01 12.19599 -68.99225 761 ft 122 kts 103°
2026-04-29 18:01 12.19350 -68.98149 919 ft 196 kts 101°
2026-04-29 18:01 12.19045 -68.96573 1069 ft 245 kts 101°
2026-04-29 18:02 12.18969 -68.94845 2059 ft 251 kts 77°
2026-04-29 18:02 12.19996 -68.93195 2479 ft 313 kts 47°
2026-04-29 18:02 12.21955 -68.92025 2475 ft 343 kts 20°
2026-04-29 18:02 12.24320 -68.91911 2487 ft 330 kts 352°
2026-04-29 18:03 12.26280 -68.92875 2484 ft 301 kts 321°
2026-04-29 18:03 12.27366 -68.94558 2477 ft 279 kts 287°
2026-04-29 18:03 12.27371 -68.96445 2486 ft 258 kts 250°
2026-04-29 18:03 12.26457 -68.97927 2500 ft 239 kts 226°
2026-04-29 18:04 12.25534 -68.99279 2487 ft 233 kts 245°
2026-04-29 18:04 12.25250 -69.00896 2502 ft 228 kts 263°
2026-04-29 18:04 12.25073 -69.02492 2488 ft 222 kts 260°
2026-04-29 18:04 12.24834 -69.04048 2519 ft 223 kts 258°
2026-04-29 18:05 12.24550 -69.05640 2484 ft 227 kts 257°
2026-04-29 18:05 12.24270 -69.07203 2506 ft 222 kts 258°
2026-04-29 18:05 12.24010 -69.08731 2500 ft 217 kts 259°
2026-04-29 18:05 12.23532 -69.10156 2508 ft 214 kts 230°
2026-04-29 18:06 12.22295 -69.10831 2488 ft 196 kts 178°
2026-04-29 18:06 12.21120 -69.10405 2497 ft 179 kts 131°
2026-04-29 18:06 12.20732 -69.09259 2456 ft 177 kts 85°
2026-04-29 18:06 12.20996 -69.08022 2487 ft 179 kts 81°
2026-04-29 18:07 12.21102 -69.06754 2608 ft 179 kts 93°
2026-04-29 18:07 12.20909 -69.05634 2883 ft 135 kts 101°
2026-04-29 18:07 12.20756 -69.04790 2829 ft 119 kts 99°
2026-04-29 18:07 12.20597 -69.03857 2427 ft 137 kts 101°
2026-04-29 18:08 12.20394 -69.02924 2271 ft 130 kts 103°
2026-04-29 18:08 12.20128 -69.02059 1950 ft 128 kts 104°
2026-04-29 18:08 12.19925 -69.01225 1603 ft 109 kts 103°
2026-04-29 18:08 12.19803 -69.00411 1177 ft 125 kts 98°
2026-04-29 18:09 12.19664 -68.99533 877 ft 127 kts 101°
2026-04-29 18:09 12.19467 -68.98735 643 ft 97 kts 100°
2026-04-29 18:09 12.19304 -68.97947 353 ft 123 kts 98°
2026-04-29 18:09 12.19140 -68.97164 153 ft 93 kts 97°
2026-04-29 18:10 12.19000 -68.96497 53 ft 87 kts 102°
2026-04-29 18:10 12.18923 -68.96123 39 ft 24 kts 101°
2026-04-29 18:10 12.18890 -68.95972 38 ft 20 kts 107°
2026-04-29 18:10 12.18789 -68.95937 38 ft 21 kts 194°
2026-04-29 18:11 12.18680 -68.95865 38 ft 22 kts 103°
2026-04-29 18:11 12.18668 -68.95811 38 ft 5 kts 110°
2026-04-29 18:11 12.18633 -68.95796 38 ft 0 kts 192°
2026-04-29 18:11 12.18627 -68.95797 38 ft 12 kts 191°
2026-04-29 18:12 12.18557 -68.95811 38 ft 0 kts 189°
2026-04-29 18:12 12.18556 -68.95811 38 ft 0 kts 188°